| time (UTC) | temp F | wind direction | speed MPH | gust MPH | rain 1hr in | rain 24hr in | rain mn in | humidity % | barometer mb |
| 20260507010357 | 49 | 311 | 0.0 | 1.0 | 0.01 | 0.60 | 0.60 | 99 | 1004.2 |
| 20260507005858 | 49 | 311 | 0.0 | 0.0 | 0.01 | 0.60 | 0.60 | 99 | 1004.3 |
| 20260507005357 | 49 | 310 | 0.0 | 0.0 | 0.01 | 0.60 | 0.60 | 99 | 1004.1 |
| 20260507004859 | 50 | 301 | 0.0 | 0.0 | 0.01 | 0.60 | 0.60 | 99 | 1004.4 |
| 20260507004619 | 50 | 317 | 0.0 | 0.0 | 0.00 | 0.59 | 0.59 | 100 | 1004.2 |
| 20260507003856 | 50 | 313 | 0.0 | 0.0 | 0.00 | 0.59 | 0.59 | 100 | 1004.0 |
| 20260507002349 | 50 | 279 | 0.0 | 2.0 | 0.00 | 0.59 | 0.59 | 99 | 1003.9 |
| 20260507001848 | 50 | 204 | 0.0 | 0.0 | 0.00 | 0.59 | 0.59 | 100 | 1004.0 |
| 20260507001347 | 50 | 204 | 0.0 | 1.0 | 0.00 | 0.59 | 0.59 | 100 | 1003.8 |
| 20260507001118 | 50 | 204 | 0.0 | 3.0 | 0.00 | 0.59 | 0.59 | 100 | 1003.5 |
| 20260507000343 | 51 | 205 | 0.0 | 3.0 | 0.00 | 0.59 | 0.59 | 100 | 1003.7 |
| 20260506235842 | 51 | 222 | 0.0 | 3.0 | 0.00 | 0.59 | 0.59 | 99 | 1003.6 |
| 20260506235610 | 51 | 11 | 0.0 | 2.0 | 0.00 | 0.59 | 0.59 | 99 | 1003.5 |
| 20260506233838 | 53 | 145 | 0.0 | 1.0 | 0.00 | 0.59 | 0.59 | 100 | 1003.1 |
| 20260506233336 | 53 | 145 | 0.0 | 1.0 | 0.00 | 0.59 | 0.59 | 100 | 1003.2 |
| 20260506232837 | 54 | 145 | 0.0 | 1.0 | 0.00 | 0.59 | 0.59 | 100 | 1003.1 |
| 20260506232335 | 54 | 145 | 0.0 | 2.0 | 0.04 | 0.59 | 0.59 | 100 | 1003.1 |
| 20260506231838 | 54 | 146 | 0.0 | 2.0 | 0.08 | 0.59 | 0.59 | 100 | 1003.0 |
| 20260506231337 | 55 | 175 | 0.0 | 2.0 | 0.10 | 0.59 | 0.59 | 100 | 1003.1 |
| 20260506230837 | 56 | 150 | 0.0 | 2.0 | 0.13 | 0.59 | 0.59 | 100 | 1003.1 |
| 20260506230336 | 56 | 165 | 0.0 | 0.0 | 0.14 | 0.59 | 0.59 | 100 | 1003.1 |
| 20260506225836 | 56 | 112 | 0.0 | 0.0 | 0.14 | 0.59 | 0.59 | 100 | 1003.0 |
| 20260506225336 | 56 | 115 | 0.0 | 0.0 | 0.15 | 0.59 | 0.59 | 100 | 1003.0 |
| 20260506224836 | 56 | 115 | 0.0 | 1.0 | 0.18 | 0.59 | 0.59 | 100 | 1002.9 |
| 20260506224336 | 56 | 115 | 0.0 | 1.0 | 0.18 | 0.59 | 0.59 | 100 | 1002.8 |
| 20260506223835 | 56 | 83 | 0.0 | 2.0 | 0.19 | 0.59 | 0.59 | 100 | 1002.9 |
| 20260506223337 | 56 | 33 | 0.0 | 7.0 | 0.20 | 0.59 | 0.59 | 100 | 1002.9 |
| 20260506223054 | 56 | 355 | 0.0 | 7.0 | 0.22 | 0.59 | 0.59 | 100 | 1002.9 |
| 20260506222336 | 56 | 294 | 0.0 | 6.0 | 0.21 | 0.55 | 0.56 | 100 | 1002.9 |
| 20260506221834 | 56 | 250 | 1.0 | 6.0 | 0.18 | 0.51 | 0.51 | 100 | 1002.8 |
| 20260506221335 | 56 | 132 | 2.0 | 7.0 | 0.17 | 0.49 | 0.49 | 100 | 1002.5 |
| 20260506221309 | 56 | 182 | 1.0 | 7.0 | 0.15 | 0.46 | 0.46 | 100 | 1002.6 |
| 20260506220334 | 56 | 186 | 1.0 | 7.0 | 0.15 | 0.46 | 0.45 | 100 | 1002.6 |
| 20260506215834 | 56 | 136 | 1.0 | 7.0 | 0.15 | 0.48 | 0.45 | 100 | 1002.6 |
| 20260506215336 | 56 | 131 | 0.0 | 6.0 | 0.14 | 0.49 | 0.44 | 100 | 1002.8 |
| 20260506214821 | 56 | 134 | 1.0 | 6.0 | 0.12 | 0.47 | 0.41 | 100 | 1002.9 |
| 20260506214315 | 56 | 143 | 1.0 | 8.0 | 0.12 | 0.48 | 0.41 | 100 | 1002.8 |
| 20260506213809 | 56 | 172 | 2.0 | 8.0 | 0.12 | 0.48 | 0.40 | 100 | 1002.9 |
| 20260506213259 | 56 | 131 | 2.0 | 8.0 | 0.11 | 0.48 | 0.39 | 100 | 1002.9 |
| 20260506212753 | 56 | 169 | 1.0 | 6.0 | 0.08 | 0.45 | 0.37 | 100 | 1003.0 |
| 20260506212734 | 56 | 109 | 2.0 | 7.0 | 0.06 | 0.43 | 0.34 | 100 | 1003.1 |
| 20260506211733 | 56 | 149 | 2.0 | 11.0 | 0.05 | 0.42 | 0.33 | 100 | 1003.1 |
| 20260506211227 | 56 | 167 | 2.0 | 10.0 | 0.05 | 0.41 | 0.32 | 100 | 1003.0 |
| 20260506210944 | 56 | 159 | 2.0 | 7.0 | 0.03 | 0.39 | 0.31 | 100 | 1003.1 |
| 20260506210212 | 56 | 138 | 2.0 | 7.0 | 0.03 | 0.39 | 0.30 | 100 | 1003.2 |
| 20260506205706 | 56 | 155 | 2.0 | 7.0 | 0.03 | 0.39 | 0.30 | 100 | 1003.2 |
| 20260506205159 | 56 | 140 | 2.0 | 6.0 | 0.03 | 0.39 | 0.30 | 100 | 1003.3 |
| 20260506204646 | 56 | 148 | 2.0 | 8.0 | 0.02 | 0.38 | 0.29 | 100 | 1003.3 |
| 20260506204139 | 56 | 132 | 2.0 | 8.0 | 0.02 | 0.38 | 0.29 | 100 | 1003.4 |
| 20260506203633 | 56 | 160 | 2.0 | 7.0 | 0.01 | 0.37 | 0.28 | 100 | 1003.3 |
| 20260506203123 | 56 | 138 | 2.0 | 8.0 | 0.02 | 0.37 | 0.28 | 100 | 1003.4 |
| 20260506202837 | 56 | 189 | 2.0 | 8.0 | 0.02 | 0.37 | 0.28 | 100 | 1003.5 |
| 20260506202111 | 56 | 167 | 2.0 | 7.0 | 0.02 | 0.37 | 0.28 | 100 | 1003.5 |
| 20260506201557 | 56 | 159 | 2.0 | 9.0 | 0.02 | 0.36 | 0.28 | 100 | 1003.6 |
| 20260506201051 | 56 | 143 | 2.0 | 9.0 | 0.02 | 0.36 | 0.27 | 100 | 1003.7 |
| 20260506200544 | 56 | 168 | 2.0 | 9.0 | 0.03 | 0.36 | 0.27 | 100 | 1003.7 |
| 20260506200035 | 56 | 128 | 2.0 | 8.0 | 0.03 | 0.36 | 0.27 | 100 | 1003.7 |
| 20260506195529 | 56 | 163 | 2.0 | 7.0 | 0.04 | 0.36 | 0.27 | 100 | 1003.8 |
| 20260506195023 | 56 | 136 | 2.0 | 7.0 | 0.04 | 0.36 | 0.27 | 100 | 1003.8 |
| 20260506194509 | 56 | 130 | 1.0 | 7.0 | 0.05 | 0.36 | 0.27 | 100 | 1003.9 |
| 20260506194003 | 56 | 154 | 1.0 | 7.0 | 0.06 | 0.36 | 0.27 | 100 | 1003.9 |
| 20260506193457 | 56 | 129 | 1.0 | 5.0 | 0.05 | 0.35 | 0.26 | 100 | 1004.0 |
| 20260506192947 | 56 | 117 | 1.0 | 7.0 | 0.06 | 0.35 | 0.26 | 100 | 1004.1 |
| 20260506192442 | 56 | 135 | 2.0 | 9.0 | 0.07 | 0.35 | 0.26 | 100 | 1004.1 |
| 20260506192156 | 56 | 163 | 2.0 | 11.0 | 0.08 | 0.35 | 0.26 | 100 | 1004.2 |
| 20260506191432 | 56 | 161 | 2.0 | 11.0 | 0.07 | 0.34 | 0.25 | 100 | 1004.2 |
| 20260506190933 | 56 | 147 | 2.0 | 8.0 | 0.08 | 0.34 | 0.25 | 100 | 1004.2 |
| 20260506190433 | 56 | 161 | 2.0 | 7.0 | 0.08 | 0.33 | 0.24 | 100 | 1004.2 |
| 20260506190156 | 56 | 148 | 2.0 | 7.0 | 0.10 | 0.33 | 0.24 | 100 | 1004.2 |
| 20260506185431 | 56 | 153 | 3.0 | 9.0 | 0.10 | 0.32 | 0.23 | 100 | 1004.2 |
| 20260506184931 | 56 | 154 | 3.0 | 10.0 | 0.10 | 0.32 | 0.23 | 100 | 1004.4 |
| 20260506184434 | 56 | 150 | 3.0 | 10.0 | 0.10 | 0.31 | 0.22 | 100 | 1004.3 |
| 20260506183938 | 56 | 160 | 3.0 | 8.0 | 0.10 | 0.30 | 0.21 | 100 | 1004.3 |
| 20260506183431 | 56 | 135 | 2.0 | 8.0 | 0.11 | 0.30 | 0.21 | 100 | 1004.3 |
| 20260506182931 | 56 | 140 | 1.0 | 6.0 | 0.11 | 0.29 | 0.20 | 100 | 1004.5 |
| 20260506182926 | 56 | 157 | 1.0 | 6.0 | 0.11 | 0.28 | 0.19 | 100 | 1004.5 |
| 20260506181927 | 56 | 133 | 1.0 | 8.0 | 0.10 | 0.27 | 0.18 | 100 | 1004.6 |
| 20260506181655 | 56 | 186 | 1.0 | 8.0 | 0.11 | 0.27 | 0.18 | 100 | 1004.7 |
| 20260506180920 | 56 | 146 | 1.0 | 7.0 | 0.11 | 0.26 | 0.17 | 100 | 1004.8 |
| 20260506180414 | 56 | 160 | 1.0 | 7.0 | 0.10 | 0.25 | 0.16 | 100 | 1004.9 |
| 20260506175912 | 56 | 130 | 1.0 | 7.0 | 0.09 | 0.23 | 0.14 | 99 | 1005.0 |
| 20260506175413 | 56 | 159 | 1.0 | 7.0 | 0.08 | 0.22 | 0.13 | 99 | 1005.0 |
| 20260506173910 | 56 | 178 | 0.0 | 4.0 | 0.08 | 0.20 | 0.11 | 99 | 1005.1 |
| 20260506173412 | 56 | 178 | 0.0 | 0.0 | 0.07 | 0.19 | 0.10 | 99 | 1005.1 |
| 20260506172909 | 56 | 178 | 0.0 | 0.0 | 0.06 | 0.18 | 0.09 | 99 | 1005.3 |
| 20260506172409 | 56 | 178 | 0.0 | 0.0 | 0.06 | 0.17 | 0.09 | 98 | 1005.4 |
| 20260506172134 | 56 | 178 | 0.0 | 0.0 | 0.06 | 0.17 | 0.08 | 98 | 1005.5 |
| 20260506171409 | 56 | 178 | 0.0 | 0.0 | 0.05 | 0.16 | 0.07 | 98 | 1005.5 |
| 20260506170909 | 56 | 178 | 0.0 | 0.0 | 0.04 | 0.15 | 0.07 | 98 | 1005.6 |
| 20260506170410 | 56 | 178 | 0.0 | 0.0 | 0.04 | 0.15 | 0.06 | 98 | 1005.6 |
| 20260506165910 | 56 | 178 | 0.0 | 0.0 | 0.04 | 0.14 | 0.05 | 98 | 1005.7 |
| 20260506165640 | 56 | 178 | 0.0 | 0.0 | 0.04 | 0.14 | 0.05 | 97 | 1005.5 |
| 20260506165133 | 56 | 178 | 0.0 | 0.0 | 0.03 | 0.13 | 0.04 | 98 | 1005.6 |
| 20260506164412 | 56 | 178 | 0.0 | 0.0 | 0.03 | 0.13 | 0.04 | 97 | 1005.7 |
| 20260506164133 | 56 | 178 | 0.0 | 0.0 | 0.02 | 0.12 | 0.03 | 97 | 1005.7 |
| 20260506163415 | 56 | 178 | 0.0 | 0.0 | 0.03 | 0.12 | 0.03 | 97 | 1005.7 |
| 20260506163135 | 56 | 178 | 0.0 | 0.0 | 0.03 | 0.12 | 0.03 | 97 | 1005.8 |
| 20260506162408 | 56 | 178 | 0.0 | 0.0 | 0.02 | 0.11 | 0.03 | 97 | 1005.8 |
| 20260506162133 | 56 | 178 | 0.0 | 0.0 | 0.02 | 0.11 | 0.02 | 97 | 1005.9 |
| 20260506161402 | 56 | 178 | 0.0 | 0.0 | 0.02 | 0.11 | 0.02 | 97 | 1006.1 |
| 20260506160900 | 56 | 178 | 0.0 | 0.0 | 0.02 | 0.11 | 0.02 | 96 | 1006.2 |
| 20260506160357 | 56 | 178 | 0.0 | 0.0 | 0.02 | 0.11 | 0.02 | 96 | 1006.3 |
| 20260506155855 | 56 | 178 | 0.0 | 0.0 | 0.01 | 0.10 | 0.01 | 95 | 1006.5 |
| 20260506155355 | 56 | 178 | 0.0 | 0.0 | 0.01 | 0.10 | 0.01 | 95 | 1006.6 |
| 20260506154854 | 56 | 178 | 0.0 | 1.0 | 0.01 | 0.10 | 0.01 | 94 | 1006.7 |
| 20260506154616 | 57 | 178 | 0.0 | 2.0 | 0.01 | 0.10 | 0.01 | 94 | 1006.9 |
| 20260506153853 | 57 | 178 | 0.0 | 2.0 | 0.01 | 0.10 | 0.01 | 94 | 1007.0 |
| 20260506153353 | 57 | 178 | 0.0 | 0.0 | 0.00 | 0.09 | 0.00 | 93 | 1006.9 |
| 20260506152852 | 57 | 178 | 0.0 | 1.0 | 0.00 | 0.09 | 0.00 | 92 | 1006.9 |
| 20260506152352 | 57 | 178 | 0.0 | 1.0 | 0.00 | 0.09 | 0.00 | 92 | 1007.0 |
| 20260506151853 | 57 | 178 | 0.0 | 1.0 | 0.00 | 0.09 | 0.00 | 91 | 1006.9 |
| 20260506151354 | 57 | 178 | 0.0 | 1.0 | 0.00 | 0.09 | 0.00 | 91 | 1006.8 |
| 20260506150850 | 57 | 178 | 0.0 | 0.0 | 0.00 | 0.09 | 0.00 | 90 | 1006.7 |
| 20260506150349 | 57 | 178 | 0.0 | 0.0 | 0.00 | 0.09 | 0.00 | 90 | 1006.8 |
| 20260506145850 | 57 | 178 | 0.0 | 0.0 | 0.00 | 0.09 | 0.00 | 91 | 1006.9 |
| 20260506145349 | 57 | 178 | 0.0 | 0.0 | 0.00 | 0.09 | 0.00 | 90 | 1006.9 |
| 20260506144850 | 57 | 178 | 0.0 | 3.0 | 0.00 | 0.09 | 0.00 | 90 | 1006.9 |
| 20260506144356 | 57 | 177 | 0.0 | 3.0 | 0.00 | 0.09 | 0.00 | 89 | 1007.0 |
| 20260506143851 | 57 | 200 | 0.0 | 0.0 | 0.00 | 0.09 | 0.00 | 89 | 1007.0 |
| 20260506143351 | 57 | 175 | 0.0 | 1.0 | 0.00 | 0.09 | 0.00 | 89 | 1006.9 |
| 20260506143108 | 57 | 180 | 0.0 | 4.0 | 0.00 | 0.09 | 0.00 | 90 | 1007.0 |
| 20260506142330 | 57 | 177 | 1.0 | 4.0 | 0.00 | 0.09 | 0.00 | 89 | 1006.9 |
| 20260506141824 | 57 | 146 | 1.0 | 3.0 | 0.00 | 0.09 | 0.00 | 89 | 1006.9 |
| 20260506141319 | 57 | 128 | 0.0 | 3.0 | 0.00 | 0.09 | 0.00 | 90 | 1006.8 |
| 20260506140809 | 57 | 155 | 0.0 | 4.0 | 0.00 | 0.09 | 0.00 | 90 | 1006.9 |
| 20260506140303 | 57 | 153 | 0.0 | 4.0 | 0.00 | 0.09 | 0.00 | 90 | 1006.8 |
| 20260506135756 | 57 | 182 | 0.0 | 3.0 | 0.00 | 0.09 | 0.00 | 90 | 1006.8 |
| 20260506135242 | 57 | 179 | 0.0 | 4.0 | 0.00 | 0.09 | 0.00 | 90 | 1006.8 |
| 20260506134736 | 57 | 199 | 0.0 | 4.0 | 0.00 | 0.09 | 0.00 | 91 | 1006.8 |
| 20260506134230 | 57 | 151 | 0.0 | 3.0 | 0.00 | 0.09 | 0.00 | 91 | 1007.0 |
| 20260506133721 | 56 | 151 | 0.0 | 5.0 | 0.00 | 0.09 | 0.00 | 91 | 1007.1 |
| 20260506133214 | 56 | 151 | 0.0 | 5.0 | 0.00 | 0.09 | 0.00 | 92 | 1007.1 |
| 20260506132933 | 56 | 151 | 0.0 | 2.0 | 0.00 | 0.09 | 0.00 | 92 | 1007.3 |
| 20260506132155 | 56 | 151 | 0.0 | 2.0 | 0.00 | 0.09 | 0.00 | 91 | 1007.2 |
| 20260506131648 | 56 | 151 | 0.0 | 1.0 | 0.00 | 0.09 | 0.00 | 92 | 1007.1 |
| 20260506131412 | 56 | 151 | 0.0 | 3.0 | 0.00 | 0.09 | 0.00 | 91 | 1007.3 |
| 20260506130633 | 56 | 151 | 0.0 | 3.0 | 0.00 | 0.09 | 0.00 | 92 | 1007.2 |
| 20260506130127 | 56 | 145 | 0.0 | 4.0 | 0.00 | 0.09 | 0.00 | 92 | 1007.1 |
| 20260506130107 | 55 | 145 | 1.0 | 4.0 | 0.00 | 0.09 | 0.00 | 92 | 1007.3 |
| 20260506125106 | 55 | 143 | 1.0 | 4.0 | 0.00 | 0.09 | 0.00 | 91 | 1007.2 |
| 20260506124600 | 55 | 146 | 0.0 | 3.0 | 0.00 | 0.09 | 0.00 | 91 | 1007.2 |
| 20260506124055 | 55 | 154 | 1.0 | 5.0 | 0.00 | 0.09 | 0.00 | 91 | 1007.2 |
| 20260506123544 | 55 | 152 | 1.0 | 7.0 | 0.00 | 0.09 | 0.00 | 91 | 1007.1 |
| 20260506123038 | 55 | 162 | 1.0 | 7.0 | 0.00 | 0.09 | 0.00 | 91 | 1007.0 |
| 20260506122751 | 55 | 157 | 1.0 | 4.0 | 0.00 | 0.09 | 0.00 | 91 | 1007.0 |
| 20260506122245 | 55 | 157 | 1.0 | 5.0 | 0.00 | 0.09 | 0.00 | 91 | 1007.3 |
| 20260506121512 | 55 | 134 | 0.0 | 5.0 | 0.00 | 0.09 | 0.00 | 91 | 1007.2 |
| 20260506121007 | 56 | 147 | 0.0 | 5.0 | 0.00 | 0.09 | 0.00 | 91 | 1007.3 |
| 20260506120456 | 56 | 155 | 1.0 | 4.0 | 0.00 | 0.09 | 0.00 | 91 | 1007.4 |
| 20260506115950 | 56 | 155 | 1.0 | 4.0 | 0.00 | 0.09 | 0.00 | 92 | 1007.5 |
| 20260506115444 | 56 | 142 | 0.0 | 5.0 | 0.00 | 0.09 | 0.00 | 92 | 1007.4 |
| 20260506114930 | 55 | 139 | 1.0 | 5.0 | 0.00 | 0.09 | 0.00 | 92 | 1007.5 |
| 20260506114425 | 55 | 157 | 1.0 | 5.0 | 0.00 | 0.09 | 0.00 | 92 | 1007.5 |
| 20260506114140 | 55 | 159 | 1.0 | 5.0 | 0.00 | 0.09 | 0.00 | 93 | 1007.5 |
| 20260506113409 | 55 | 163 | 1.0 | 7.0 | 0.00 | 0.09 | 0.00 | 93 | 1007.4 |
| 20260506112903 | 55 | 176 | 1.0 | 7.0 | 0.00 | 0.09 | 0.00 | 94 | 1007.3 |
| 20260506112357 | 54 | 194 | 1.0 | 7.0 | 0.00 | 0.09 | 0.00 | 94 | 1007.4 |
| 20260506111843 | 54 | 163 | 1.0 | 7.0 | 0.00 | 0.09 | 0.00 | 94 | 1007.4 |
| 20260506111336 | 54 | 178 | 2.0 | 6.0 | 0.00 | 0.09 | 0.00 | 95 | 1007.4 |
| 20260506110830 | 54 | 182 | 1.0 | 6.0 | 0.00 | 0.09 | 0.00 | 96 | 1007.4 |
| 20260506110321 | 54 | 170 | 1.0 | 6.0 | 0.00 | 0.09 | 0.00 | 97 | 1007.4 |
| 20260506105814 | 53 | 153 | 1.0 | 6.0 | 0.00 | 0.09 | 0.00 | 98 | 1007.4 |
| 20260506105532 | 53 | 126 | 0.0 | 0.0 | 0.00 | 0.09 | 0.00 | 98 | 1007.4 |
| 20260506105017 | 53 | 126 | 0.0 | 0.0 | 0.00 | 0.09 | 0.00 | 98 | 1007.5 |
| 20260506104248 | 53 | 126 | 0.0 | 0.0 | 0.00 | 0.09 | 0.00 | 98 | 1007.5 |
| 20260506103742 | 53 | 126 | 0.0 | 0.0 | 0.00 | 0.09 | 0.00 | 98 | 1007.4 |
| 20260506103232 | 53 | 126 | 0.0 | 0.0 | 0.00 | 0.09 | 0.00 | 99 | 1007.4 |
| 20260506102726 | 53 | 126 | 0.0 | 0.0 | 0.00 | 0.09 | 0.00 | 98 | 1007.2 |
| 20260506102221 | 52 | 126 | 0.0 | 0.0 | 0.00 | 0.09 | 0.00 | 98 | 1007.2 |
| 20260506101706 | 52 | 126 | 0.0 | 0.0 | 0.00 | 0.09 | 0.00 | 98 | 1007.2 |
| 20260506101200 | 52 | 126 | 0.0 | 0.0 | 0.00 | 0.09 | 0.00 | 98 | 1007.2 |
| 20260506100654 | 52 | 126 | 0.0 | 0.0 | 0.00 | 0.09 | 0.00 | 98 | 1007.3 |
| 20260506100143 | 52 | 126 | 0.0 | 0.0 | 0.00 | 0.09 | 0.00 | 98 | 1007.3 |
| 20260506095637 | 52 | 126 | 0.0 | 0.0 | 0.00 | 0.09 | 0.00 | 98 | 1007.2 |
| 20260506095131 | 52 | 126 | 0.0 | 0.0 | 0.00 | 0.09 | 0.00 | 97 | 1007.2 |
| 20260506094618 | 52 | 126 | 0.0 | 0.0 | 0.00 | 0.09 | 0.00 | 97 | 1007.2 |
| 20260506094111 | 52 | 126 | 0.0 | 0.0 | 0.00 | 0.09 | 0.00 | 98 | 1007.3 |
| 20260506093605 | 52 | 126 | 0.0 | 0.0 | 0.00 | 0.09 | 0.00 | 98 | 1007.3 |
| 20260506093055 | 52 | 126 | 0.0 | 0.0 | 0.00 | 0.09 | 0.00 | 97 | 1007.2 |
| 20260506092550 | 52 | 126 | 0.0 | 0.0 | 0.00 | 0.09 | 0.00 | 97 | 1007.1 |
| 20260506092043 | 52 | 126 | 0.0 | 1.0 | 0.00 | 0.09 | 0.00 | 97 | 1007.2 |
| 20260506091529 | 52 | 126 | 0.0 | 1.0 | 0.00 | 0.09 | 0.00 | 96 | 1007.2 |
| 20260506091023 | 53 | 126 | 0.0 | 0.0 | 0.00 | 0.09 | 0.00 | 97 | 1007.3 |
| 20260506090517 | 53 | 126 | 0.0 | 0.0 | 0.00 | 0.09 | 0.00 | 96 | 1007.3 |
| 20260506090007 | 53 | 126 | 0.0 | 0.0 | 0.00 | 0.09 | 0.00 | 95 | 1007.3 |
| 20260506085001 | 54 | 126 | 0.0 | 0.0 | 0.00 | 0.09 | 0.00 | 95 | 1007.5 |
| 20260506084457 | 54 | 126 | 0.0 | 1.0 | 0.00 | 0.09 | 0.00 | 95 | 1007.4 |
| 20260506084218 | 54 | 126 | 0.0 | 1.0 | 0.00 | 0.09 | 0.00 | 96 | 1007.5 |
| 20260506083457 | 54 | 126 | 0.0 | 0.0 | 0.00 | 0.09 | 0.00 | 96 | 1007.4 |
| 20260506082956 | 54 | 126 | 0.0 | 0.0 | 0.00 | 0.09 | 0.00 | 95 | 1007.5 |
| 20260506082456 | 54 | 126 | 0.0 | 0.0 | 0.00 | 0.09 | 0.00 | 95 | 1007.6 |
| 20260506081956 | 55 | 126 | 0.0 | 1.0 | 0.00 | 0.09 | 0.00 | 95 | 1007.4 |
| 20260506081454 | 55 | 126 | 0.0 | 3.0 | 0.00 | 0.09 | 0.00 | 95 | 1007.4 |
| 20260506080954 | 55 | 126 | 0.0 | 3.0 | 0.00 | 0.09 | 0.00 | 94 | 1007.4 |
| 20260506080720 | 55 | 126 | 0.0 | 0.0 | 0.00 | 0.09 | 0.00 | 94 | 1007.4 |
| 20260506073453 | 55 | 126 | 0.0 | 2.0 | 0.00 | 0.09 | 0.00 | 94 | 1007.5 |
| 20260506073214 | 55 | 94 | 0.0 | 0.0 | 0.00 | 0.09 | 0.00 | 95 | 1007.5 |
| 20260506072454 | 55 | 94 | 0.0 | 0.0 | 0.00 | 0.09 | 0.00 | 94 | 1007.5 |
| 20260506071956 | 55 | 94 | 0.0 | 0.0 | 0.00 | 0.09 | 0.00 | 94 | 1007.4 |
| 20260506071224 | 55 | 94 | 0.0 | 0.0 | 0.00 | 0.09 | 0.00 | 93 | 1007.3 |
| 20260506061941 | 57 | 101 | 1.0 | 4.0 | 0.00 | 0.09 | 0.00 | 91 | 1007.2 |
| 20260506061659 | 57 | 103 | 0.0 | 3.0 | 0.00 | 0.09 | 0.00 | 91 | 1007.2 |
| 20260506061158 | 57 | 111 | 0.0 | 3.0 | 0.00 | 0.09 | 0.00 | 91 | 1007.1 |
| 20260506060439 | 56 | 91 | 0.0 | 3.0 | 0.00 | 0.09 | 0.00 | 91 | 1007.0 |
| 20260506044426 | 56 | 101 | 0.0 | 0.0 | 0.00 | 0.09 | 0.00 | 92 | 1007.2 |
| 20260506044409 | 56 | 101 | 0.0 | 0.0 | 0.00 | 0.09 | 0.00 | 92 | 1007.1 |
| 20260506043419 | 56 | 101 | 0.0 | 0.0 | 0.00 | 0.09 | 0.00 | 92 | 1007.1 |
| 20260506043150 | 56 | 101 | 0.0 | 0.0 | 0.00 | 0.09 | 0.00 | 92 | 1007.3 |
| 20260506042436 | 56 | 101 | 0.0 | 0.0 | 0.00 | 0.09 | 0.00 | 94 | 1007.3 |
| 20260506041919 | 56 | 101 | 0.0 | 0.0 | 0.00 | 0.09 | 0.00 | 94 | 1007.2 |
| 20260506041417 | 56 | 101 | 0.0 | 0.0 | 0.00 | 0.09 | 0.00 | 94 | 1007.2 |
| 20260506041353 | 56 | 101 | 0.0 | 0.0 | 0.00 | 0.09 | 0.00 | 93 | 1007.2 |
| 20260506040629 | 56 | 101 | 0.0 | 0.0 | 0.00 | 0.09 | 0.00 | 94 | 1007.2 |
| 20260506035857 | 55 | 101 | 0.0 | 0.0 | 0.00 | 0.09 | 0.09 | 93 | 1007.2 |
| 20260506035358 | 55 | 101 | 0.0 | 0.0 | 0.00 | 0.09 | 0.09 | 94 | 1007.2 |
| 20260506034857 | 55 | 101 | 0.0 | 0.0 | 0.00 | 0.09 | 0.09 | 94 | 1007.2 |
| 20260506034356 | 56 | 101 | 0.0 | 0.0 | 0.00 | 0.09 | 0.09 | 94 | 1007.3 |
| 20260506033858 | 56 | 101 | 0.0 | 0.0 | 0.00 | 0.09 | 0.09 | 94 | 1007.3 |
| 20260506033358 | 55 | 101 | 0.0 | 0.0 | 0.00 | 0.09 | 0.09 | 94 | 1007.2 |
| 20260506032855 | 55 | 101 | 0.0 | 0.0 | 0.00 | 0.09 | 0.09 | 94 | 1007.2 |
| 20260506031856 | 55 | 101 | 0.0 | 0.0 | 0.00 | 0.09 | 0.09 | 95 | 1007.3 |
| 20260506031351 | 55 | 101 | 0.0 | 0.0 | 0.00 | 0.09 | 0.09 | 95 | 1007.4 |
| 20260506030841 | 55 | 101 | 0.0 | 0.0 | 0.00 | 0.09 | 0.09 | 96 | 1007.4 |
| 20260506030606 | 55 | 101 | 0.0 | 0.0 | 0.00 | 0.09 | 0.09 | 96 | 1007.4 |
| 20260506025828 | 55 | 101 | 0.0 | 0.0 | 0.00 | 0.09 | 0.09 | 96 | 1007.4 |
| 20260506025533 | 54 | 101 | 0.0 | 0.0 | 0.00 | 0.09 | 0.09 | 96 | 1007.4 |
| 20260506024808 | 54 | 101 | 0.0 | 0.0 | 0.00 | 0.09 | 0.09 | 96 | 1007.2 |
| 20260506024521 | 54 | 101 | 0.0 | 0.0 | 0.00 | 0.09 | 0.09 | 96 | 1007.1 |
| 20260506023753 | 54 | 101 | 0.0 | 0.0 | 0.00 | 0.09 | 0.09 | 96 | 1007.1 |
| 20260506023511 | 54 | 101 | 0.0 | 0.0 | 0.00 | 0.09 | 0.09 | 96 | 1007.2 |
| 20260506022741 | 54 | 101 | 0.0 | 0.0 | 0.00 | 0.09 | 0.09 | 96 | 1007.0 |
| 20260506022226 | 54 | 101 | 0.0 | 0.0 | 0.00 | 0.09 | 0.09 | 96 | 1007.0 |
| 20260506021720 | 54 | 101 | 0.0 | 0.0 | 0.00 | 0.09 | 0.09 | 96 | 1007.0 |
| 20260506021215 | 54 | 101 | 0.0 | 0.0 | 0.00 | 0.09 | 0.09 | 95 | 1006.9 |
| 20260506020705 | 54 | 101 | 0.0 | 0.0 | 0.00 | 0.09 | 0.09 | 95 | 1007.0 |
| 20260506020158 | 55 | 101 | 0.0 | 0.0 | 0.00 | 0.09 | 0.09 | 95 | 1007.1 |
| 20260506015652 | 55 | 101 | 0.0 | 0.0 | 0.00 | 0.09 | 0.09 | 95 | 1007.0 |
| 20260506015402 | 55 | 101 | 0.0 | 0.0 | 0.00 | 0.09 | 0.09 | 94 | 1006.9 |
| 20260506014632 | 56 | 101 | 0.0 | 0.0 | 0.00 | 0.09 | 0.09 | 94 | 1007.1 |
| 20260506014127 | 56 | 101 | 0.0 | 0.0 | 0.00 | 0.09 | 0.09 | 94 | 1007.1 |
| 20260506013836 | 56 | 101 | 0.0 | 0.0 | 0.00 | 0.09 | 0.09 | 93 | 1007.0 |
| 20260506013115 | 55 | 101 | 0.0 | 0.0 | 0.00 | 0.09 | 0.09 | 94 | 1007.0 |
| 20260506012605 | 55 | 101 | 0.0 | 0.0 | 0.00 | 0.09 | 0.09 | 95 | 1007.0 |
| 20260506012051 | 55 | 101 | 0.0 | 0.0 | 0.00 | 0.09 | 0.09 | 95 | 1006.9 |
| 20260506011545 | 56 | 101 | 0.0 | 0.0 | 0.00 | 0.09 | 0.09 | 95 | 1006.9 |
| 20260506011038 | 56 | 101 | 0.0 | 0.0 | 0.00 | 0.09 | 0.09 | 95 | 1006.8 |
| 20260506010754 | 56 | 101 | 0.0 | 0.0 | 0.00 | 0.09 | 0.09 | 94 | 1006.6 |